Location: Ch�tillon
(48.8024°N, 2.2935°E)
Time: 10:04:09
(UTC+00:00)

DIWATA 2B (PO-101) - Pass Details

Date: 03 July 2022
Orbit: 583 x 599 km, 98.0° (Epoch: 14 August)

Event Time Altitude Azimuth Distance (km) Brightness Sun altitude
Exits shadow 01:56:30 18° 184° (S) 1,467 ? -13.3°
Maximum altitude 01:59:26 57° 259° (WSW) 710 ? -13.0°
Drops below altitude 10° 02:03:37 10° 339° (NNW) 1,951 ? -12.7°
Sets 02:05:50 0° 343° (NNW) 2,858 ? -12.5°
